Time,TemperatureF,DewpointF,PressureIn,WindDirection,WindDirectionDegrees,WindSpeedMPH,WindSpeedGustMPH,Humidity,HourlyPrecipIn,Conditions,Clouds,dailyrainin,SoftwareType,DateUTC
2013-02-03 00:02:00,38.0,28.0,30.22,SSW,207,1.0,6.0,68,0.00,,,0.07,,2013-02-03 06:02:00,
2013-02-03 00:11:00,38.0,28.0,30.22,SSW,207,1.0,6.0,68,0.00,,,0.07,,2013-02-03 06:11:00,
2013-02-03 00:21:00,38.0,28.0,30.23,SSW,197,0.0,7.0,68,0.00,,,0.07,,2013-02-03 06:21:00,
2013-02-03 00:32:00,38.0,28.0,30.23,WNW,300,6.0,10.0,68,0.00,,,0.07,,2013-02-03 06:32:00,
2013-02-03 00:41:00,38.0,28.0,30.23,WNW,300,6.0,10.0,68,0.00,,,0.07,,2013-02-03 06:41:00,
2013-02-03 00:52:00,38.0,29.0,30.24,WSW,242,2.0,9.0,69,0.00,,,0.07,,2013-02-03 06:52:00,
2013-02-03 01:01:00,38.0,28.0,30.24,ESE,104,0.0,4.0,67,0.00,,,0.07,,2013-02-03 07:01:00,
2013-02-03 01:11:00,38.0,28.0,30.24,ESE,104,0.0,4.0,67,0.00,,,0.07,,2013-02-03 07:11:00,
2013-02-03 01:21:00,38.0,28.0,30.25,ENE,63,1.0,3.0,68,0.00,,,0.07,,2013-02-03 07:21:00,
2013-02-03 01:31:00,37.0,28.0,30.25,ENE,68,0.0,3.0,69,0.00,,,0.07,,2013-02-03 07:31:00,
2013-02-03 01:41:00,37.0,28.0,30.25,ENE,68,0.0,3.0,69,0.00,,,0.07,,2013-02-03 07:41:00,
2013-02-03 01:52:00,38.0,29.0,30.24,NNE,30,3.0,6.0,69,0.00,,,0.07,,2013-02-03 07:52:00,
2013-02-03 02:01:00,38.0,28.0,30.25,NE,40,1.0,5.0,68,0.00,,,0.07,,2013-02-03 08:01:00,
2013-02-03 02:11:00,38.0,28.0,30.25,NE,40,1.0,5.0,68,0.00,,,0.07,,2013-02-03 08:11:00,
2013-02-03 02:22:00,37.0,28.0,30.25,SSE,155,0.0,3.0,70,0.00,,,0.07,,2013-02-03 08:22:00,
2013-02-03 02:32:00,35.0,27.0,30.26,SSW,205,0.0,4.0,73,0.00,,,0.07,,2013-02-03 08:32:00,
2013-02-03 02:41:00,35.0,27.0,30.26,SSW,205,0.0,4.0,73,0.00,,,0.07,,2013-02-03 08:41:00,
2013-02-03 02:52:00,35.0,28.0,30.26,South,171,0.0,2.0,75,0.00,,,0.07,,2013-02-03 08:52:00,
2013-02-03 03:02:00,35.0,28.0,30.26,South,171,0.0,2.0,75,0.00,,,0.07,,2013-02-03 09:02:00,
2013-02-03 03:11:00,35.0,28.0,30.26,South,171,0.0,2.0,75,0.00,,,0.07,,2013-02-03 09:11:00,
2013-02-03 03:21:00,35.0,28.0,30.27,NNW,343,0.0,3.0,76,0.00,,,0.07,,2013-02-03 09:21:00,
2013-02-03 03:31:00,35.0,28.0,30.26,NE,38,2.0,5.0,74,0.00,,,0.07,,2013-02-03 09:31:00,
2013-02-03 03:42:00,35.0,28.0,30.26,NE,38,2.0,5.0,74,0.00,,,0.07,,2013-02-03 09:42:00,
2013-02-03 03:52:00,34.0,27.0,30.27,SSW,204,0.0,4.0,76,0.00,,,0.07,,2013-02-03 09:52:00,
2013-02-03 04:01:00,33.0,27.0,30.27,SSW,199,0.0,2.0,78,0.00,,,0.07,,2013-02-03 10:01:00,
2013-02-03 04:11:00,33.0,27.0,30.27,SSW,199,0.0,2.0,78,0.00,,,0.07,,2013-02-03 10:11:00,
2013-02-03 04:21:00,33.0,27.0,30.26,SSW,195,0.0,1.0,79,0.00,,,0.07,,2013-02-03 10:21:00,
2013-02-03 04:31:00,33.0,27.0,30.26,SSW,211,0.0,3.0,78,0.00,,,0.07,,2013-02-03 10:31:00,
2013-02-03 04:42:00,33.0,27.0,30.26,SSW,211,0.0,3.0,78,0.00,,,0.07,,2013-02-03 10:42:00,
2013-02-03 04:52:00,33.0,27.0,30.26,NE,44,2.0,4.0,79,0.00,,,0.07,,2013-02-03 10:52:00,
2013-02-03 05:02:00,33.0,27.0,30.25,NE,40,2.0,6.0,77,0.00,,,0.07,,2013-02-03 11:02:00,
2013-02-03 05:11:00,33.0,27.0,30.25,NE,40,2.0,6.0,77,0.00,,,0.07,,2013-02-03 11:11:00,
2013-02-03 05:22:00,33.0,27.0,30.26,NE,40,0.0,1.0,78,0.00,,,0.07,,2013-02-03 11:22:00,
2013-02-03 05:32:00,32.0,26.0,30.26,NE,40,0.0,0.0,77,0.00,,,0.07,,2013-02-03 11:32:00,
2013-02-03 05:42:00,32.0,26.0,30.26,NE,40,0.0,0.0,77,0.00,,,0.07,,2013-02-03 11:42:00,
2013-02-03 05:52:00,30.0,25.0,30.27,NE,40,0.0,0.0,80,0.00,,,0.07,,2013-02-03 11:52:00,
2013-02-03 06:02:00,30.0,25.0,30.27,NE,40,0.0,0.0,82,0.00,,,0.07,,2013-02-03 12:02:00,
2013-02-03 06:11:00,30.0,25.0,30.27,NE,40,0.0,0.0,82,0.00,,,0.07,,2013-02-03 12:11:00,
2013-02-03 06:22:00,30.0,25.0,30.26,NE,41,0.0,0.0,83,0.00,,,0.07,,2013-02-03 12:22:00,
2013-02-03 06:32:00,30.0,25.0,30.26,NE,41,0.0,0.0,82,0.00,,,0.07,,2013-02-03 12:32:00,
2013-02-03 06:42:00,30.0,25.0,30.26,NE,41,0.0,0.0,82,0.00,,,0.07,,2013-02-03 12:42:00,
2013-02-03 06:53:00,30.0,25.0,30.27,NE,41,0.0,0.0,82,0.00,,,0.07,,2013-02-03 12:53:00,
2013-02-03 07:03:00,32.0,27.0,30.27,NE,41,0.0,1.0,80,0.00,,,0.07,,2013-02-03 13:03:00,
2013-02-03 07:11:00,32.0,27.0,30.27,NE,41,0.0,1.0,80,0.00,,,0.07,,2013-02-03 13:11:00,
2013-02-03 07:21:00,32.0,25.0,30.27,NE,41,0.0,0.0,76,0.00,,,0.07,,2013-02-03 13:21:00,
2013-02-03 07:32:00,31.0,26.0,30.26,NE,40,2.0,3.0,82,0.00,,,0.07,,2013-02-03 13:32:00,
2013-02-03 07:42:00,31.0,26.0,30.26,NE,40,2.0,3.0,82,0.00,,,0.07,,2013-02-03 13:42:00,
2013-02-03 07:52:00,32.0,25.0,30.25,North,355,1.0,5.0,76,0.00,,,0.07,,2013-02-03 13:52:00,
2013-02-03 08:02:00,30.0,25.0,30.26,SSW,202,0.0,4.0,80,0.00,,,0.07,,2013-02-03 14:02:00,
2013-02-03 08:11:00,30.0,25.0,30.26,SSW,202,0.0,4.0,80,0.00,,,0.07,,2013-02-03 14:11:00,
2013-02-03 08:21:00,30.0,25.0,30.25,NE,47,0.0,4.0,83,0.00,,,0.07,,2013-02-03 14:21:00,
2013-02-03 08:32:00,32.0,27.0,30.25,NE,47,0.0,1.0,83,0.00,,,0.07,,2013-02-03 14:32:00,
2013-02-03 08:42:00,32.0,27.0,30.25,NE,47,0.0,1.0,83,0.00,,,0.07,,2013-02-03 14:42:00,
2013-02-03 08:52:00,33.0,28.0,30.26,NE,51,0.0,1.0,82,0.00,,,0.07,,2013-02-03 14:52:00,
2013-02-03 09:03:00,34.0,29.0,30.26,NE,51,0.0,1.0,81,0.00,,,0.07,,2013-02-03 15:03:00,
2013-02-03 09:11:00,34.0,29.0,30.26,NE,51,0.0,1.0,81,0.00,,,0.07,,2013-02-03 15:11:00,
2013-02-03 09:22:00,36.0,30.0,30.25,NE,51,0.0,1.0,78,0.00,,,0.07,,2013-02-03 15:22:00,
2013-02-03 09:32:00,38.0,29.0,30.25,SE,128,1.0,4.0,71,0.00,,,0.07,,2013-02-03 15:32:00,
2013-02-03 09:52:00,39.0,30.0,30.24,SSE,152,0.0,5.0,71,0.00,,,0.07,,2013-02-03 15:52:00,
2013-02-03 10:02:00,40.0,30.0,30.25,SSE,147,2.0,6.0,66,0.00,,,0.07,,2013-02-03 16:02:00,
2013-02-03 10:22:00,42.0,30.0,30.24,SE,137,1.0,6.0,63,0.00,,,0.06,,2013-02-03 16:22:00,
2013-02-03 10:32:00,43.0,29.0,30.24,SE,141,1.0,6.0,58,0.00,,,0.06,,2013-02-03 16:32:00,
2013-02-03 10:41:00,43.0,29.0,30.24,SE,141,1.0,6.0,58,0.00,,,0.06,,2013-02-03 16:41:00,
2013-02-03 10:52:00,43.0,28.0,30.23,SE,129,1.0,5.0,56,0.00,,,0.06,,2013-02-03 16:52:00,
2013-02-03 11:02:00,44.0,28.0,30.22,SE,135,1.0,6.0,54,0.00,,,0.06,,2013-02-03 17:02:00,
2013-02-03 11:11:00,44.0,28.0,30.22,SE,135,1.0,6.0,54,0.00,,,0.06,,2013-02-03 17:11:00,
2013-02-03 11:21:00,45.0,28.0,30.22,ESE,121,1.0,7.0,52,0.00,,,0.03,,2013-02-03 17:21:00,
2013-02-03 11:32:00,45.0,27.0,30.20,ESE,117,2.0,8.0,50,0.00,,,0.03,,2013-02-03 17:32:00,
2013-02-03 11:42:00,45.0,27.0,30.20,ESE,117,2.0,8.0,50,0.00,,,0.03,,2013-02-03 17:42:00,
2013-02-03 11:52:00,45.0,27.0,30.20,SE,146,3.0,8.0,49,0.00,,,0.03,,2013-02-03 17:52:00,
2013-02-03 12:02:00,46.0,27.0,30.19,SE,142,3.0,9.0,48,0.00,,,0.03,,2013-02-03 18:02:00,
2013-02-03 12:12:00,46.0,27.0,30.19,SE,142,3.0,9.0,48,0.00,,,0.03,,2013-02-03 18:12:00,
2013-02-03 12:23:00,46.0,27.0,30.18,SE,132,4.0,8.0,47,0.00,,,0.01,,2013-02-03 18:23:00,
2013-02-03 12:32:00,48.0,27.0,30.17,SE,138,3.0,10.0,44,0.00,,,0.01,,2013-02-03 18:32:00,
2013-02-03 12:42:00,48.0,27.0,30.17,SE,138,3.0,10.0,44,0.00,,,0.01,,2013-02-03 18:42:00,
2013-02-03 12:52:00,50.0,28.0,30.15,SSE,166,4.0,10.0,42,0.00,,,0.01,,2013-02-03 18:52:00,
2013-02-03 13:02:00,50.0,28.0,30.13,SSW,207,4.0,12.0,42,0.00,,,0.01,,2013-02-03 19:02:00,
2013-02-03 13:11:00,50.0,28.0,30.13,SSW,207,4.0,12.0,42,0.00,,,0.01,,2013-02-03 19:11:00,
2013-02-03 13:22:00,51.0,28.0,30.12,South,172,5.0,10.0,40,0.00,,,0.00,,2013-02-03 19:22:00,
2013-02-03 13:32:00,51.0,28.0,30.10,SW,222,6.0,11.0,41,0.00,,,0.00,,2013-02-03 19:32:00,
2013-02-03 13:42:00,51.0,28.0,30.10,SW,222,6.0,11.0,41,0.00,,,0.00,,2013-02-03 19:42:00,
2013-02-03 13:52:00,52.0,28.0,30.09,SSW,213,4.0,10.0,39,0.00,,,0.00,,2013-02-03 19:52:00,
2013-02-03 14:01:00,53.0,29.0,30.08,South,175,4.0,9.0,39,0.00,,,0.00,,2013-02-03 20:01:00,
2013-02-03 14:12:00,53.0,29.0,30.08,South,175,4.0,9.0,39,0.00,,,0.00,,2013-02-03 20:12:00,
2013-02-03 14:21:00,54.0,31.0,30.06,SSE,155,5.0,10.0,42,0.00,,,0.00,,2013-02-03 20:21:00,
2013-02-03 14:32:00,55.0,31.0,30.05,SSW,212,6.0,12.0,39,0.00,,,0.00,,2013-02-03 20:32:00,
2013-02-03 14:42:00,55.0,31.0,30.05,SSW,212,6.0,12.0,39,0.00,,,0.00,,2013-02-03 20:42:00,
2013-02-03 14:52:00,55.0,30.0,30.04,SSW,205,6.0,11.0,38,0.00,,,0.00,,2013-02-03 20:52:00,
2013-02-03 15:03:00,56.0,30.0,30.03,SW,223,6.0,11.0,37,0.00,,,0.00,,2013-02-03 21:03:00,
2013-02-03 15:11:00,56.0,30.0,30.03,SW,223,6.0,11.0,37,0.00,,,0.00,,2013-02-03 21:11:00,
2013-02-03 15:21:00,56.0,30.0,30.01,SW,223,8.0,13.0,37,0.00,,,0.00,,2013-02-03 21:21:00,
2013-02-03 15:32:00,56.0,29.0,30.01,SW,216,8.0,15.0,36,0.00,,,0.00,,2013-02-03 21:32:00,
2013-02-03 15:42:00,56.0,29.0,30.01,SW,216,8.0,15.0,36,0.00,,,0.00,,2013-02-03 21:42:00,
2013-02-03 15:52:00,55.0,29.0,30.00,WSW,240,8.0,14.0,36,0.00,,,0.00,,2013-02-03 21:52:00,
2013-02-03 16:01:00,55.0,29.0,29.99,SW,221,8.0,14.0,37,0.00,,,0.00,,2013-02-03 22:01:00,
2013-02-03 16:11:00,55.0,29.0,29.99,SW,221,8.0,14.0,37,0.00,,,0.00,,2013-02-03 22:11:00,
2013-02-03 16:21:00,54.0,30.0,29.98,WSW,248,5.0,12.0,39,0.00,,,0.00,,2013-02-03 22:21:00,
2013-02-03 16:32:00,55.0,30.0,29.97,SW,225,5.0,12.0,38,0.00,,,0.00,,2013-02-03 22:32:00,
2013-02-03 16:41:00,55.0,30.0,29.97,SW,225,5.0,12.0,38,0.00,,,0.00,,2013-02-03 22:41:00,
2013-02-03 16:52:00,54.0,29.0,29.96,SW,230,7.0,12.0,38,0.00,,,0.00,,2013-02-03 22:52:00,
2013-02-03 17:01:00,53.0,29.0,29.95,SW,227,5.0,10.0,40,0.00,,,0.00,,2013-02-03 23:01:00,
2013-02-03 17:12:00,53.0,29.0,29.95,SW,227,5.0,10.0,40,0.00,,,0.00,,2013-02-03 23:12:00,
2013-02-03 17:22:00,51.0,29.0,29.94,South,187,3.0,7.0,42,0.00,,,0.00,,2013-02-03 23:22:00,
2013-02-03 17:32:00,50.0,29.0,29.93,SSW,208,3.0,8.0,44,0.00,,,0.00,,2013-02-03 23:32:00,
2013-02-03 17:42:00,50.0,29.0,29.93,SSW,208,3.0,8.0,44,0.00,,,0.00,,2013-02-03 23:42:00,
2013-02-03 17:52:00,49.0,30.0,29.93,SSW,208,2.0,6.0,47,0.00,,,0.00,,2013-02-03 23:52:00,
2013-02-03 18:01:00,48.0,30.0,29.92,SW,232,3.0,6.0,50,0.00,,,0.00,,2013-02-04 00:01:00,
2013-02-03 18:11:00,48.0,30.0,29.92,SW,232,3.0,6.0,50,0.00,,,0.00,,2013-02-04 00:11:00,
2013-02-03 18:22:00,47.0,29.0,29.91,SW,230,4.0,8.0,50,0.00,,,0.00,,2013-02-04 00:22:00,
2013-02-03 18:32:00,47.0,29.0,29.90,SW,218,4.0,7.0,50,0.00,,,0.00,,2013-02-04 00:32:00,
2013-02-03 18:41:00,47.0,29.0,29.90,SW,218,4.0,7.0,50,0.00,,,0.00,,2013-02-04 00:41:00,
2013-02-03 18:52:00,47.0,29.0,29.90,WSW,255,4.0,6.0,50,0.00,,,0.00,,2013-02-04 00:52:00,
2013-02-03 19:01:00,47.0,30.0,29.90,SW,235,2.0,6.0,51,0.00,,,0.00,,2013-02-04 01:01:00,
2013-02-03 19:11:00,47.0,30.0,29.90,SW,235,2.0,6.0,51,0.00,,,0.00,,2013-02-04 01:11:00,
2013-02-03 19:21:00,46.0,29.0,29.90,SW,232,1.0,3.0,52,0.00,,,0.00,,2013-02-04 01:21:00,
2013-02-03 19:31:00,45.0,29.0,29.89,SSW,196,1.0,3.0,54,0.00,,,0.00,,2013-02-04 01:31:00,
2013-02-03 19:41:00,45.0,29.0,29.89,SSW,196,1.0,3.0,54,0.00,,,0.00,,2013-02-04 01:41:00,
2013-02-03 19:52:00,46.0,30.0,29.88,SSW,196,2.0,5.0,54,0.00,,,0.00,,2013-02-04 01:52:00,
2013-02-03 20:02:00,45.0,30.0,29.87,SSW,213,0.0,3.0,55,0.00,,,0.00,,2013-02-04 02:02:00,
2013-02-03 20:11:00,45.0,30.0,29.87,SSW,213,0.0,3.0,55,0.00,,,0.00,,2013-02-04 02:11:00,
2013-02-03 20:21:00,44.0,29.0,29.86,South,173,1.0,5.0,55,0.00,,,0.00,,2013-02-04 02:21:00,
2013-02-03 20:31:00,44.0,29.0,29.85,South,171,0.0,4.0,56,0.00,,,0.00,,2013-02-04 02:31:00,
2013-02-03 20:41:00,44.0,29.0,29.85,South,171,0.0,4.0,56,0.00,,,0.00,,2013-02-04 02:41:00,
2013-02-03 20:52:00,43.0,29.0,29.85,South,173,0.0,4.0,58,0.00,,,0.00,,2013-02-04 02:52:00,
2013-02-03 21:02:00,43.0,29.0,29.84,SSW,198,0.0,3.0,58,0.00,,,0.00,,2013-02-04 03:02:00,
2013-02-03 21:11:00,43.0,29.0,29.84,SSW,198,0.0,3.0,58,0.00,,,0.00,,2013-02-04 03:11:00,
2013-02-03 21:21:00,43.0,30.0,29.83,SW,221,1.0,4.0,60,0.00,,,0.00,,2013-02-04 03:21:00,
2013-02-03 21:32:00,44.0,31.0,29.83,SSW,206,3.0,7.0,60,0.00,,,0.00,,2013-02-04 03:32:00,
2013-02-03 21:41:00,44.0,31.0,29.83,SSW,206,3.0,7.0,60,0.00,,,0.00,,2013-02-04 03:41:00,
2013-02-03 21:52:00,45.0,32.0,29.83,SW,228,4.0,8.0,59,0.00,,,0.00,,2013-02-04 03:52:00,
2013-02-03 22:01:00,47.0,32.0,29.83,SW,230,6.0,12.0,56,0.00,,,0.00,,2013-02-04 04:01:00,
2013-02-03 22:11:00,47.0,32.0,29.83,SW,230,6.0,12.0,56,0.00,,,0.00,,2013-02-04 04:11:00,
2013-02-03 22:21:00,47.0,32.0,29.83,SW,230,6.0,12.0,56,0.00,,,0.00,,2013-02-04 04:21:00,
2013-02-03 22:32:00,48.0,32.0,29.81,WSW,253,9.0,17.0,53,0.00,,,0.00,,2013-02-04 04:32:00,
2013-02-03 22:41:00,48.0,32.0,29.81,WSW,253,9.0,17.0,53,0.00,,,0.00,,2013-02-04 04:41:00,
2013-02-03 22:52:00,48.0,32.0,29.81,WSW,253,9.0,17.0,53,0.00,,,0.00,,2013-02-04 04:52:00,
2013-02-03 23:03:00,48.0,33.0,29.80,SW,231,8.0,13.0,55,0.00,,,0.00,,2013-02-04 05:03:00,
2013-02-03 23:11:00,48.0,33.0,29.80,SW,231,8.0,13.0,55,0.00,,,0.00,,2013-02-04 05:11:00,
2013-02-03 23:22:00,48.0,33.0,29.80,SW,231,8.0,13.0,55,0.00,,,0.00,,2013-02-04 05:22:00,
2013-02-03 23:33:00,47.0,32.0,29.80,SW,215,8.0,14.0,55,0.00,,,0.00,,2013-02-04 05:33:00,
2013-02-03 23:42:00,47.0,32.0,29.80,SW,215,8.0,14.0,55,0.00,,,0.00,,2013-02-04 05:42:00,
2013-02-03 23:52:00,47.0,32.0,29.79,WSW,253,8.0,12.0,56,0.00,,,0.00,,2013-02-04 05:52:00,